Surface/Precipitation History
12/09/2018 01:52  to  12/10/2018 01:52
Change End Date:
Date/Time
(MDT)
Sf
Temp Chem Water Layer Surface Precipitation
Sfc Pvt Sub Frz Factor Pct Dpth DpthThk IcePct Cond Salin FI Type Intens Accum Rate
12/10/2018 01:51 Ice Warning 17.1F - 34F 32F 95 0% - - 99% 1 mhos 111 - None None - -
12/10/2018 01:45 Ice Warning 17.1F - 34F 32F 95 0% - - 99% 1 mhos 112 - None None - -
12/10/2018 01:41 Error 17.1F - 34F - - - - - - 1 mhos 113 - None None - -
12/10/2018 01:31 Error 17.1F - 34F - - - - - - 1 mhos 110 - None None - -
12/10/2018 01:21 Error 17.1F - 34F - - - - - - 1 mhos 105 - None None - -
12/10/2018 01:11 Ice Warning 17.2F - 34F 32F 95 0% - - 99% 1 mhos 107 - None None - -
12/10/2018 01:01 Error 17.2F - 34F - - - - - - 1 mhos 110 - None None - -
12/10/2018 00:51 Error 17.4F - 34F - - - - - - 1 mhos 106 - None None - -
12/10/2018 00:48 Error 17.2F - 34F - - - - - - 1 mhos 110 - None None - -
12/10/2018 00:41 Error 17.4F - 34F - - - - - - 1 mhos 112 - None None - -
12/10/2018 00:31 Error 17.4F - 34F - - - - - - 1 mhos 110 - None None - -
12/10/2018 00:21 Error 17.6F - 34F - - - - - - 1 mhos 110 - None None - -
12/10/2018 00:11 Ice Warning 17.6F - 34F 32F 95 0% - - 99% 1 mhos 114 - None None - -
12/10/2018 00:00 Error 17.8F - 34F - - - - - - 1 mhos 114 - None None - -
12/09/2018 23:50 Ice Warning 17.8F - 34F 32F 95 0% - - 99% 1 mhos 110 - None None - -
Date/Time
(MDT)
Sf
Temp Chem Water Layer Surface Precipitation
Sfc Pvt Sub Frz Factor Pct Dpth DpthThk IcePct Cond Salin FI Type Intens Accum Rate
12/09/2018 23:45 Error 18.0F - 34F - - - - - - 1 mhos 113 - None None - -
12/09/2018 23:40 Error 17.8F - 34F - - - - - - 1 mhos 113 - None None - -
12/09/2018 23:30 Ice Warning 17.8F - 34F 32F 95 0% - - 99% 1 mhos 111 - None None - -
12/09/2018 23:20 Ice Warning 17.8F - 34F 32F 95 0% - - 99% 1 mhos 110 - None None - -
12/09/2018 23:15 Ice Warning 17.8F - 34F 32F 95 0% - - 99% 1 mhos 114 - None None - -
12/09/2018 23:10 Ice Warning 17.8F - 34F 32F 95 0% - - 99% 1 mhos 114 - None None - -
12/09/2018 23:00 Ice Warning 18.0F - 34F 32F 95 0% - - 99% 1 mhos 117 - None None - -
12/09/2018 22:50 Ice Warning 18.1F - 34F 32F 95 0% - - 99% 1 mhos 114 - None None - -
12/09/2018 22:45 Error 18.1F - 34F - - - - - - 1 mhos 118 - None None - -
12/09/2018 22:40 Ice Warning 18.3F - 34F 32F 95 0% - - 99% 1 mhos 118 - None None - -
12/09/2018 22:30 Ice Warning 18.5F - 34F 32F 95 0% - - 99% 1 mhos 117 - None None - -
12/09/2018 22:20 Ice Warning 18.7F - 34F 32F 95 0% - - 99% 1 mhos 120 - None None - -
12/09/2018 22:15 Ice Warning 18.7F - 34F 32F 95 0% - - 99% 1 mhos 118 - None None - -
12/09/2018 22:10 Ice Warning 18.7F - 34F 32F 95 0% - - 99% 1 mhos 117 - None None - -
12/09/2018 22:00 Ice Warning 18.9F - 34F 32F 95 0% - - 99% 1 mhos 122 - None None - -
Date/Time
(MDT)
Sf
Temp Chem Water Layer Surface Precipitation
Sfc Pvt Sub Frz Factor Pct Dpth DpthThk IcePct Cond Salin FI Type Intens Accum Rate
12/09/2018 21:50 Ice Warning 19.0F - 34F 32F 95 0% - - 99% 1 mhos 126 - None None - -
12/09/2018 21:45 Ice Warning 19.2F - 34F 32F 95 0% - - 99% 1 mhos 123 - None None - -
12/09/2018 21:40 Ice Warning 19.2F - 34F 32F 95 0% - - 99% 1 mhos 127 - None None - -
12/09/2018 21:30 Ice Warning 19.6F - 34F 32F 95 0% - - 99% 1 mhos 127 - None None - -
12/09/2018 21:20 Ice Warning 19.8F - 34F 32F 95 1% - - 99% 1 mhos 134 - None None - -
12/09/2018 21:15 Ice Warning 19.8F - 34F 32F 95 1% - - 99% 1 mhos 133 - None None - -
12/09/2018 21:10 Ice Warning 19.8F - 34F 32F 95 1% - - 99% 1 mhos 134 - None None - -
12/09/2018 21:00 Ice Warning 20.1F - 34F 32F 95 1% - - 99% 1 mhos 138 - None None - -
12/09/2018 20:49 Ice Warning 20.5F - 34F 32F 95 1% - - 99% 1 mhos 139 - None None - -
12/09/2018 20:46 Ice Warning 20.7F - 34F 32F 95 1% - - 99% 1 mhos 141 - None None - -
12/09/2018 20:39 Ice Warning 20.7F - 34F 32F 95 1% - - 99% 1 mhos 139 - None None - -
12/09/2018 20:29 Ice Warning 20.3F - 34F 32F 95 1% - - 99% 1 mhos 135 - None None - -
12/09/2018 20:19 Ice Warning 19.8F - 34F 32F 95 1% - - 99% 1 mhos 134 - None None - -
12/09/2018 20:09 Ice Warning 19.8F - 34F 32F 95 1% - - 99% 1 mhos 140 - None None - -
12/09/2018 19:59 Ice Warning 19.9F - 34F 32F 95 1% - - 99% 1 mhos 130 - None None - -
Date/Time
(MDT)
Sf
Temp Chem Water Layer Surface Precipitation
Sfc Pvt Sub Frz Factor Pct Dpth DpthThk IcePct Cond Salin FI Type Intens Accum Rate
12/09/2018 19:49 Ice Warning 19.9F - 34F 32F 95 0% - - 99% 1 mhos 129 - None None - -
12/09/2018 19:48 Ice Warning 19.9F - 34F 32F 95 0% - - 99% 1 mhos 129 - None None - -
12/09/2018 19:39 Ice Warning 20.3F - 34F 32F 95 1% - - 99% 1 mhos 131 - None None - -
12/09/2018 19:29 Ice Warning 20.3F - 34F 32F 95 1% - - 99% 1 mhos 133 - None None - -
12/09/2018 19:19 Ice Warning 20.5F - 34F 32F 95 1% - - 99% 1 mhos 145 - None None - -
12/09/2018 19:09 Ice Warning 20.5F - 34F 32F 95 1% - - 99% 1 mhos 136 - None None - -
12/09/2018 18:59 Ice Warning 20.7F - 34F 32F 95 1% - - 99% 1 mhos 136 - None None - -
12/09/2018 18:49 Ice Warning 20.7F - 34F 32F 95 1% - - 99% 1 mhos 138 - None None - -
12/09/2018 18:39 Ice Warning 20.7F - 34F 32F 95 1% - - 99% 1 mhos 142 - None None - -
12/09/2018 18:29 Ice Warning 20.8F - 34F 32F 95 1% - - 99% 1 mhos 148 - None None - -
12/09/2018 18:18 Ice Warning 21.0F - 34F 32F 95 1% - - 99% 1 mhos 141 - None None - -
12/09/2018 18:08 Ice Warning 21.4F - 34F 32F 95 1% - - 99% 1 mhos 140 - None None - -
12/09/2018 17:58 Ice Warning 21.6F - 34F 32F 95 1% - - 99% 1 mhos 141 - None None - -
12/09/2018 17:48 Ice Warning 21.7F - 34F 32F 95 1% - - 99% 1 mhos 146 - None None - -
12/09/2018 17:45 Error 21.7F - 34F - - - - - - 1 mhos 147 - None None - -
Date/Time
(MDT)
Sf
Temp Chem Water Layer Surface Precipitation
Sfc Pvt Sub Frz Factor Pct Dpth DpthThk IcePct Cond Salin FI Type Intens Accum Rate
12/09/2018 17:38 Ice Warning 21.7F - 34F 32F 95 1% - - 99% 1 mhos 140 - None None - -
12/09/2018 17:28 Ice Warning 21.9F - 34F 32F 95 1% - - 99% 1 mhos 145 - None None - -
12/09/2018 17:18 Ice Warning 22.1F - 34F 32F 95 1% - - 99% 1 mhos 147 - None None - -
12/09/2018 17:08 Ice Warning 22.3F - 34F 32F 95 1% - - 98% 1 mhos 154 - None None - -
12/09/2018 16:58 Ice Warning 22.6F - 34F 32F 95 1% - - 98% 1 mhos 156 - None None - -
12/09/2018 16:48 Ice Warning 22.8F - 34F 32F 95 1% - - 98% 1 mhos 158 - None None - -
12/09/2018 16:47 Ice Warning 22.8F - 34F 32F 95 1% - - 98% 1 mhos 163 - None None - -
12/09/2018 16:38 Ice Warning 23.0F - 34F 32F 95 1% - - 98% 1 mhos 157 - None None - -
12/09/2018 16:28 Ice Warning 23.5F - 34F 32F 95 1% - - 98% 1 mhos 165 - None None - -
12/09/2018 16:18 Ice Warning 23.9F - 34F 32F 95 1% - - 98% 1 mhos 168 - None None - -
12/09/2018 16:15 Ice Warning 23.9F - 34F 32F 95 1% - - 98% 1 mhos 172 - None None - -
12/09/2018 16:08 Ice Warning 24.1F - 34F 32F 95 1% - - 98% 1 mhos 176 - None None - -
12/09/2018 15:58 Ice Warning 24.3F - 34F 32F 95 1% - - 98% 2 mhos 182 - None None - -
12/09/2018 15:48 Ice Warning 24.6F - 34F 32F 95 1% - - 98% 2 mhos 185 - None None - -
12/09/2018 15:37 Ice Warning 24.8F - 34F 32F 95 1% - - 97% 2 mhos 193 - None None - -
Date/Time
(MDT)
Sf
Temp Chem Water Layer Surface Precipitation
Sfc Pvt Sub Frz Factor Pct Dpth DpthThk IcePct Cond Salin FI Type Intens Accum Rate
12/09/2018 15:27 Ice Warning 25.2F - 34F 32F 95 1% - - 97% 2 mhos 203 - None None - -
12/09/2018 15:17 Ice Warning 25.3F - 34F 32F 95 1% - - 97% 2 mhos 214 - None None - -
12/09/2018 15:17 Ice Warning 25.3F - 34F 32F 95 1% - - 97% 2 mhos 214 - None None - -
12/09/2018 15:07 Ice Warning 25.7F - 34F 32F 95 1% - - 96% 2 mhos 229 - None None - -
12/09/2018 14:57 Ice Warning 26.2F - 34F 32F 95 1% - - 96% 2 mhos 243 - None None - -
12/09/2018 14:47 Ice Warning 26.4F - 34F 32F 95 1% - - 95% 2 mhos 268 - None None - -
12/09/2018 14:45 Ice Warning 26.6F - 34F 32F 95 1% - - 95% 2 mhos 270 - None None - -
12/09/2018 14:37 Ice Warning 27.0F - 34F 32F 95 1% - - 94% 3 mhos 288 - None None - -
12/09/2018 14:27 Ice Warning 27.3F - 34F 32F 95 1% - - 93% 3 mhos 308 - None None - -
12/09/2018 14:17 Ice Warning 27.7F - 34F 32F 95 1% - - 92% 3 mhos 341 - None None - -
12/09/2018 14:15 Ice Warning 27.9F - 34F 32F 95 1% - - 92% 3 mhos 346 - None None - -
12/09/2018 14:07 Ice Warning 28.0F - 34F 32F 95 1% - - 91% 3 mhos 355 - None None - -
12/09/2018 13:57 Ice Warning 28.4F - 34F 32F 95 1% - - 90% 3 mhos 353 - None None - -
12/09/2018 13:47 Ice Warning 28.6F - 34F 32F 95 1% - - 89% 3 mhos 380 - None None - -
12/09/2018 13:45 Ice Warning 28.6F - 34F 32F 95 1% - - 88% 3 mhos 386 - None None - -
Date/Time
(MDT)
Sf
Temp Chem Water Layer Surface Precipitation
Sfc Pvt Sub Frz Factor Pct Dpth DpthThk IcePct Cond Salin FI Type Intens Accum Rate
12/09/2018 13:37 Ice Warning 28.8F - 34F 32F 95 1% - - 88% 3 mhos 367 - None None - -
12/09/2018 13:27 Ice Warning 28.8F - 34F 32F 95 1% - - 88% 3 mhos 373 - None None - -
12/09/2018 13:17 Ice Warning 28.4F - 34F 32F 95 1% - - 90% 3 mhos 364 - None None - -
12/09/2018 13:16 Ice Warning 28.4F - 34F 32F 95 1% - - 90% 3 mhos 376 - None None - -
12/09/2018 13:07 Ice Warning 28.4F - 34F 32F 95 1% - - 90% 3 mhos 353 - None None - -
12/09/2018 12:57 Ice Warning 28.4F - 34F 32F 95 1% - - 90% 3 mhos 353 - None None - -
12/09/2018 12:47 Ice Warning 28.4F - 34F 32F 95 1% - - 90% 3 mhos 359 - None None - -
12/09/2018 12:45 Ice Warning 28.2F - 34F 32F 95 1% - - 91% 3 mhos 349 - None None - -
12/09/2018 12:36 Ice Warning 28.0F - 34F 32F 95 1% - - 91% 3 mhos 350 - None None - -
12/09/2018 12:26 Ice Warning 27.9F - 34F 32F 95 1% - - 93% 3 mhos 306 - None None - -
12/09/2018 12:16 Ice Warning 27.5F - 34F 32F 95 1% - - 94% 3 mhos 286 - None None - -
12/09/2018 12:06 Ice Warning 27.1F - 34F 32F 95 1% - - 95% 2 mhos 271 - None None - -
12/09/2018 11:56 Ice Warning 26.8F - 34F 32F 95 1% - - 95% 2 mhos 270 - None None - -
12/09/2018 11:46 Ice Warning 26.4F - 34F 32F 95 1% - - 95% 2 mhos 262 - None None - -
12/09/2018 11:36 Ice Warning 26.2F - 34F 32F 95 1% - - 96% 2 mhos 266 - None None - -
Date/Time
(MDT)
Sf
Temp Chem Water Layer Surface Precipitation
Sfc Pvt Sub Frz Factor Pct Dpth DpthThk IcePct Cond Salin FI Type Intens Accum Rate
12/09/2018 11:26 Ice Warning 25.5F - 34F 32F 95 1% - - 97% 2 mhos 221 - None None - -
12/09/2018 11:16 Ice Warning 25.2F - 34F 32F 95 1% - - 97% 2 mhos 219 - None None - -
12/09/2018 11:15 Ice Warning 25.2F - 34F 32F 95 1% - - 97% 2 mhos 219 - None None - -
12/09/2018 11:06 Ice Warning 24.8F - 34F 32F 95 1% - - 97% 2 mhos 204 - None None - -
12/09/2018 10:56 Ice Warning 24.4F - 34F 32F 95 1% - - 97% 2 mhos 197 - None None - -
12/09/2018 10:46 Ice Warning 24.1F - 34F 32F 95 1% - - 98% 2 mhos 192 - None None - -
12/09/2018 10:45 Ice Warning 24.1F - 34F 32F 95 1% - - 98% 2 mhos 192 - None None - -
12/09/2018 10:36 Ice Warning 23.9F - 34F 32F 95 1% - - 98% 2 mhos 188 - None None - -
12/09/2018 10:26 Ice Warning 23.7F - 34F 32F 95 1% - - 98% 2 mhos 183 - None None - -
12/09/2018 10:19 Ice Warning 23.5F - 34F 32F 95 1% - - 98% 2 mhos 186 - None None - -
12/09/2018 10:16 Ice Warning 23.5F - 34F 32F 95 1% - - 98% 1 mhos 181 - None None - -
12/09/2018 10:06 Ice Warning 23.2F - 34F 32F 95 1% - - 98% 1 mhos 171 - None None - -
12/09/2018 09:56 Ice Warning 22.8F - 34F 32F 95 1% - - 98% 1 mhos 168 - None None - -
12/09/2018 09:46 Ice Warning 22.8F - 34F 32F 95 1% - - 98% 1 mhos 166 - None None - -
12/09/2018 09:35 Ice Warning 22.6F - 34F 32F 95 1% - - 98% 1 mhos 160 - None None - -
Date/Time
(MDT)
Sf
Temp Chem Water Layer Surface Precipitation
Sfc Pvt Sub Frz Factor Pct Dpth DpthThk IcePct Cond Salin FI Type Intens Accum Rate
12/09/2018 09:25 Ice Warning 22.5F - 34F 32F 95 1% - - 98% 1 mhos 160 - None None - -
12/09/2018 09:15 Ice Warning 22.3F - 34F 32F 95 1% - - 98% 1 mhos 162 - None None - -
12/09/2018 09:15 Ice Warning 22.3F - 34F 32F 95 1% - - 98% 1 mhos 162 - None None - -
12/09/2018 09:05 Ice Warning 21.9F - 34F 32F 95 1% - - 98% 1 mhos 162 - None None - -
12/09/2018 08:55 Ice Warning 21.9F - 34F 32F 95 1% - - 99% 1 mhos 151 - None None - -
12/09/2018 08:45 Ice Warning 21.7F - 34F 32F 95 1% - - 99% 1 mhos 151 - None None - -
12/09/2018 08:45 Ice Warning 21.7F - 34F 32F 95 1% - - 99% 1 mhos 151 - None None - -
12/09/2018 08:35 Ice Warning 21.7F - 34F 32F 95 1% - - 99% 1 mhos 151 - None None - -
12/09/2018 08:25 Ice Warning 21.7F - 34F 32F 95 1% - - 99% 1 mhos 146 - None None - -
12/09/2018 08:15 Ice Warning 21.7F - 34F 32F 95 1% - - 99% 1 mhos 149 - None None - -
12/09/2018 08:05 Ice Warning 21.7F - 34F 32F 95 1% - - 99% 1 mhos 147 - None None - -
12/09/2018 07:55 Ice Warning 21.7F - 34F 32F 95 1% - - 99% 1 mhos 145 - None None - -
12/09/2018 07:46 Ice Warning 21.6F - 34F 32F 95 1% - - 99% 1 mhos 145 - None None - -
12/09/2018 07:45 Ice Warning 21.6F - 34F 32F 95 1% - - 99% 1 mhos 145 - None None - -
12/09/2018 07:35 Ice Warning 21.6F - 34F 32F 95 1% - - 99% 1 mhos 149 - None None - -
Date/Time
(MDT)
Sf
Temp Chem Water Layer Surface Precipitation
Sfc Pvt Sub Frz Factor Pct Dpth DpthThk IcePct Cond Salin FI Type Intens Accum Rate
12/09/2018 07:25 Ice Warning 21.6F - 34F 32F 95 1% - - 99% 1 mhos 147 - None None - -
12/09/2018 07:15 Ice Warning 21.4F - 34F 32F 95 1% - - 99% 1 mhos 148 - None None - -
12/09/2018 07:05 Ice Warning 21.4F - 34F 32F 95 1% - - 99% 1 mhos 148 - None None - -
12/09/2018 06:55 Ice Warning 21.4F - 34F 32F 95 1% - - 99% 1 mhos 147 - None None - -
12/09/2018 06:47 Ice Warning 21.4F - 34F 32F 95 1% - - 99% 1 mhos 147 - None None - -
12/09/2018 06:44 Ice Warning 21.4F - 34F 32F 95 1% - - 99% 1 mhos 147 - None None - -
12/09/2018 06:34 Ice Warning 21.2F - 34F 32F 95 1% - - 99% 1 mhos 150 - None None - -
12/09/2018 06:24 Ice Warning 21.4F - 34F 32F 95 1% - - 99% 1 mhos 150 - None None - -
12/09/2018 06:14 Ice Warning 21.2F - 34F 32F 95 1% - - 99% 1 mhos 146 - None None - -
12/09/2018 06:04 Ice Warning 21.2F - 34F 32F 95 1% - - 99% 1 mhos 147 - None None - -
12/09/2018 05:54 Ice Warning 21.2F - 34F 32F 95 1% - - 99% 1 mhos 149 - None None - -
12/09/2018 05:44 Ice Warning 21.2F - 34F 32F 95 1% - - 99% 1 mhos 145 - None None - -
12/09/2018 05:34 Ice Warning 21.0F - 34F 32F 95 1% - - 99% 1 mhos 146 - None None - -
12/09/2018 05:24 Ice Warning 21.2F - 34F 32F 95 1% - - 99% 1 mhos 148 - None None - -
12/09/2018 05:17 Ice Warning 21.2F - 34F 32F 95 1% - - 99% 1 mhos 144 - None None - -
Date/Time
(MDT)
Sf
Temp Chem Water Layer Surface Precipitation
Sfc Pvt Sub Frz Factor Pct Dpth DpthThk IcePct Cond Salin FI Type Intens Accum Rate
12/09/2018 05:14 Ice Warning 21.2F - 34F 32F 95 1% - - 99% 1 mhos 145 - None None - -
12/09/2018 05:04 Ice Warning 21.0F - 34F 32F 95 1% - - 99% 1 mhos 142 - None None - -
12/09/2018 04:54 Ice Warning 21.0F - 34F 32F 95 1% - - 99% 1 mhos 146 - None None - -
12/09/2018 04:44 Ice Warning 21.0F - 34F 32F 95 1% - - 99% 1 mhos 142 - None None - -
12/09/2018 04:34 Ice Warning 21.0F - 34F 32F 95 1% - - 99% 1 mhos 142 - None None - -
12/09/2018 04:24 Ice Warning 21.0F - 34F 32F 95 1% - - 99% 1 mhos 142 - None None - -
12/09/2018 04:17 Ice Warning 21.0F - 34F 32F 95 1% - - 99% 1 mhos 145 - None None - -
12/09/2018 04:14 Ice Warning 21.0F - 34F 32F 95 1% - - 99% 1 mhos 147 - None None - -
12/09/2018 04:04 Ice Warning 21.0F - 34F 32F 95 1% - - 99% 1 mhos 143 - None None - -
12/09/2018 03:53 Ice Warning 21.0F - 34F 32F 95 1% - - 99% 1 mhos 142 - None None - -
12/09/2018 03:43 Ice Warning 21.0F - 34F 32F 95 1% - - 99% 1 mhos 144 - None None - -
12/09/2018 03:33 Ice Warning 21.0F - 34F 32F 95 1% - - 99% 1 mhos 142 - None None - -
12/09/2018 03:23 Ice Warning 21.0F - 34F 32F 95 1% - - 99% 1 mhos 142 - None None - -
12/09/2018 03:13 Ice Warning 20.8F - 34F 32F 95 1% - - 99% 1 mhos 141 - None None - -
12/09/2018 03:03 Ice Warning 20.8F - 34F 32F 95 1% - - 99% 1 mhos 146 - None None - -
Date/Time
(MDT)
Sf
Temp Chem Water Layer Surface Precipitation
Sfc Pvt Sub Frz Factor Pct Dpth DpthThk IcePct Cond Salin FI Type Intens Accum Rate
12/09/2018 02:53 Ice Warning 20.8F - 34F 32F 95 1% - - 99% 1 mhos 145 - None None - -
12/09/2018 02:46 Ice Warning 20.8F - 34F 32F 95 1% - - 99% 1 mhos 144 - None None - -
12/09/2018 02:43 Ice Warning 20.8F - 34F 32F 95 1% - - 99% 1 mhos 140 - None None - -
12/09/2018 02:33 Ice Warning 20.8F - 34F 32F 95 1% - - 99% 1 mhos 140 - None None - -
12/09/2018 02:23 Ice Warning 20.7F - 34F 32F 95 1% - - 99% 1 mhos 144 - None None - -
12/09/2018 02:13 Ice Warning 20.8F - 34F 32F 95 1% - - 99% 1 mhos 142 - None None - -
12/09/2018 02:03 Ice Warning 20.7F - 34F 32F 95 1% - - 99% 1 mhos 139 - None None - -
12/09/2018 01:53 Ice Warning 20.7F - 34F 32F 95 1% - - 99% 1 mhos 142 - None None - -
Change End Date:

Copyright © 1998-2015 Vaisala, Inc.
All Rights Reserved
Send comments about the data to:
SCAN Web ® is a registered trademark of Vaisala, Inc.
SCAN Web Version 6.0